Wind_Speed
22 22 22 22 21 21 21 20 20 18 16 14 14 14 14 13 13 12 12 12 12 12 12 11 11 12 13 13 13 13 12 12 11 12 12 12 12 13 15 17 18 18 20 21
23 22 22 22 22 21 21 21 20 18 16 16 16 16 15 14 14 14 14 13 13 13 13 12 12 12 12 13 13 13 13 13 12 12 12 12 12 13 14 15 16 17 19 19
24 24 23 24 22 22 21 21 20 19 18 17 17 17 16 16 16 15 15 15 15 15 14 14 14 14 13 13 13 13 14 14 14 14 14 13 13 14 14 15 16 17 18 20
27 26 27 25 23 23 22 21 21 20 20 19 19 19 18 17 17 17 17 17 17 17 16 15 15 15 15 14 14 14 14 15 15 16 15 15 15 15 16 17 17 18 19 21
29 29 28 26 24 23 23 23 22 22 21 21 20 20 19 19 19 19 18 18 18 18 18 18 17 16 16 15 15 16 16 16 16 16 16 16 16 17 18 18 18 18 20 22
30 30 30 27 25 25 24 24 22 22 22 22 21 21 20 20 20 19 19 19 19 19 19 19 18 18 16 15 15 16 18 19 18 18 17 16 16 16 17 17 18 19 20 21
32 31 30 27 26 25 25 22 22 22 22 22 22 22 22 21 20 20 20 19 19 19 18 18 17 17 17 16 17 17 18 19 20 19 18 17 16 15 15 16 17 19 20 21
32 32 30 28 27 26 24 24 23 22 22 22 22 22 22 21 20 20 20 19 18 18 18 18 18 17 17 17 17 17 17 17 19 19 19 18 18 18 18 18 18 19 20 20
32 32 29 28 28 27 25 25 24 23 22 22 21 21 21 20 20 20 20 19 18 18 18 18 18 18 17 17 17 17 18 18 19 19 20 20 19 19 19 20 20 21 22 23
29 29 29 28 27 26 25 24 24 23 22 22 21 21 20 20 20 20 20 20 19 18 18 18 18 18 17 17 17 17 17 18 18 18 19 19 20 20 20 21 21 22 22 23
27 26 25 25 25 25 25 24 23 23 22 22 20 19 19 20 19 19 18 18 18 18 18 18 18 18 18 17 17 17 17 17 18 19 19 19 20 20 21 22 22 23 23 23
26 25 24 24 24 24 23 22 21 21 20 19 19 19 18 18 18 17 17 17 17 17 18 18 18 18 17 17 17 17 17 17 17 18 18 19 19 20 20 21 21 22 23 25
25 25 24 22 22 22 21 20 20 19 19 19 19 18 18 17 17 18 18 18 17 17 17 17 17 17 17 17 17 16 16 17 18 18 18 19 19 20 20 21 22 23 25 26
23 22 22 21 20 20 20 20 19 19 19 19 19 18 17 17 17 18 17 17 17 16 16 17 17 18 18 18 18 17 17 18 18 18 18 18 19 20 21 22 22 24 25 27
21 21 21 21 20 19 19 19 18 18 19 19 18 17 17 17 17 17 17 16 15 15 15 16 17 17 18 18 18 18 18 18 18 19 19 19 20 21 22 23 25 26 27 28
19 19 19 19 18 18 17 17 17 16 16 16 16 16 16 16 16 15 15 14 14 14 14 14 15 16 16 17 18 17 17 17 17 18 19 20 22 23 24 25 26 27 29 30
18 18 17 17 17 16 16 16 16 15 15 14 14 13 14 15 15 15 14 13 13 13 14 15 15 16 17 16 16 16 17 17 18 19 21 22 23 24 25 26 28 29 30 31
18 17 17 16 16 16 15 15 14 14 14 13 13 13 12 13 13 13 13 13 14 13 13 14 15 15 15 16 16 17 18 19 21 22 23 24 24 25 26 28 29 30 31 32
17 16 15 15 15 16 16 15 15 15 14 14 13 13 12 12 12 12 12 12 13 13 13 14 15 15 15 17 18 19 20 21 22 23 23 24 25 26 28 29 30 31 32 33
16 15 15 14 15 15 14 14 14 13 13 13 12 12 11 11 11 11 11 11 12 12 12 13 14 15 16 17 19 20 20 21 22 23 24 25 26 27 29 30 31 32 32 33
15 15 15 14 14 13 13 12 12 11 11 11 11 11 11 11 11 11 11 12 12 12 13 15 15 16 17 18 19 20 21 22 23 24 25 27 28 29 30 31 32 32 33 34
15 15 15 14 13 12 12 11 11 11 10 10 10 10 10 10 11 11 12 13 13 14 15 16 17 18 19 20 21 22 23 24 25 26 27 29 30 31 31 32 32 33 33 34
16 16 15 14 13 12 11 11 11 10 10 9 10 10 10 11 12 13 14 15 16 17 17 18 18 19 20 22 23 24 25 26 27 28 29 30 31 32 32 32 33 33 34 34
16 16 16 15 14 13 12 11 10 10 10 10 11 11 12 13 14 14 15 15 16 17 18 19 20 22 23 24 25 26 27 28 29 30 31 32 33 33 33 33 33 33 33 33
15 15 15 15 14 12 12 11 11 10 10 10 10 12 13 14 14 15 16 17 18 19 20 21 23 24 25 26 27 28 29 30 31 32 33 33 33 33 33 33 32 32 32 32
14 14 14 14 13 12 12 11 10 11 11 11 12 13 14 15 16 17 18 19 20 21 22 23 24 25 26 27 28 29 30 31 32 32 33 33 32 32 32 32 32 32 32 32
14 13 12 12 12 12 12 12 12 12 12 13 14 15 16 17 18 19 20 20 21 22 23 24 25 26 28 29 30 31 31 32 32 31 31 31 31 31 31 31 31 31 30 29
Wind_Direction
220 225 231 238 243 247 251 256 260 260 260 263 265 263 265 272 273 273 274 272 269 272 278 276 274 270 267 264 260 255 252 250 254 254 256 254 253 250 246 244 244 244 240 239
225 230 234 240 242 246 251 258 261 262 262 263 265 266 266 268 268 270 271 267 266 269 270 270 268 268 272 268 262 256 256 254 253 256 257 256 255 256 255 251 248 247 244 244
231 234 239 242 246 250 254 257 261 262 262 263 264 266 265 266 265 266 266 266 267 267 266 264 263 262 266 267 261 257 255 253 251 253 255 257 257 255 255 255 256 254 251 250
236 238 243 246 251 254 256 258 261 263 264 264 264 264 265 265 266 266 265 266 267 266 264 263 262 261 262 263 259 256 254 252 252 254 256 257 257 258 257 256 256 256 255 254
237 241 245 247 251 255 258 260 262 264 263 263 262 262 263 266 267 265 266 265 266 264 262 262 261 259 260 259 257 256 253 252 253 256 258 257 257 258 258 260 262 262 262 261
238 241 245 248 252 256 259 261 263 263 262 262 259 260 263 265 267 267 267 266 265 263 260 261 259 256 256 259 258 257 254 251 253 256 259 260 261 261 261 263 265 266 267 266
240 243 246 249 252 256 257 259 260 260 260 260 259 261 261 262 265 267 267 266 262 260 258 258 255 254 255 258 259 260 259 256 255 256 256 257 259 263 265 267 269 270 272 271
241 243 247 249 251 253 257 257 258 258 259 260 261 261 260 260 261 265 265 265 262 259 255 253 253 254 255 257 259 258 258 257 256 255 253 255 260 264 266 269 272 275 275 274
239 243 246 248 250 252 254 253 255 257 257 259 260 261 259 257 258 262 263 263 260 256 253 252 253 253 252 253 256 258 255 256 259 258 254 255 260 263 266 269 273 274 274 274
240 241 244 246 249 251 251 251 252 252 255 258 259 259 257 257 260 261 261 258 255 254 252 251 249 248 248 251 255 258 256 257 258 259 258 260 262 264 266 270 273 275 275 275
239 240 241 244 247 247 246 247 249 251 255 257 255 255 257 259 260 259 257 252 249 249 248 249 250 250 252 256 259 260 257 257 258 259 262 264 263 264 267 269 271 274 278 279
237 237 240 244 243 241 242 243 245 247 249 250 251 254 257 258 257 255 252 250 249 247 248 248 248 250 251 253 255 257 257 259 259 260 264 265 267 269 269 270 273 276 278 279
234 236 239 241 240 238 237 239 242 244 247 251 251 252 255 254 252 250 249 248 247 246 245 245 245 247 248 249 254 256 258 259 259 260 264 266 269 270 271 273 276 279 280 281
230 232 234 235 237 235 235 237 240 244 247 250 250 251 251 250 251 248 245 244 245 246 245 243 243 245 248 251 254 254 257 260 261 264 267 268 270 271 273 275 278 281 283 284
225 226 229 234 236 237 238 240 243 245 246 246 247 248 247 246 246 244 243 243 244 244 243 241 242 245 249 252 254 257 260 262 265 266 269 272 273 275 277 280 284 286 287 288
220 222 225 228 231 235 236 236 238 239 239 239 241 242 242 240 239 237 237 237 236 237 237 238 241 246 251 255 256 259 263 266 267 270 273 275 278 280 283 285 287 289 290 291
216 217 221 226 227 228 228 228 231 233 233 235 238 239 237 235 234 236 236 235 235 238 241 242 245 250 254 256 258 263 266 268 271 274 277 280 282 284 287 290 292 293 294 294
209 212 215 217 217 217 218 221 225 228 230 233 232 230 230 229 230 231 233 237 238 241 246 247 249 254 256 259 265 268 268 271 275 278 282 284 286 289 291 294 295 296 297 297
207 207 207 211 213 214 215 217 219 221 224 226 227 225 228 230 228 230 234 237 240 245 250 252 253 255 259 264 268 271 273 277 280 283 285 287 289 292 294 296 297 298 298 299
200 201 202 206 207 208 211 213 216 218 220 221 222 224 227 226 227 231 236 240 243 246 251 255 259 264 268 271 274 277 279 282 284 286 288 291 294 296 297 298 298 299 299 300
193 195 197 199 202 204 207 210 212 212 212 214 217 221 224 228 230 233 238 243 247 253 260 264 268 271 273 275 278 280 283 287 289 291 292 294 296 297 298 299 299 300 301 301
189 190 191 194 199 203 205 206 208 208 208 211 215 221 227 235 240 244 249 253 258 264 269 273 275 277 279 281 283 285 288 289 291 292 294 295 297 298 299 299 300 300 301 302
191 193 195 197 197 200 202 204 205 208 216 222 226 233 239 247 254 260 264 267 270 273 276 278 279 281 283 286 288 289 290 291 292 294 295 296 297 298 299 299 300 301 302 303
191 196 198 199 201 202 204 210 215 222 229 233 239 246 252 257 262 267 270 274 276 278 280 281 283 285 287 288 290 291 292 293 294 295 296 297 298 298 299 299 300 301 302 303
192 196 199 201 202 204 210 216 222 229 236 242 249 255 258 262 267 272 276 278 281 282 282 284 286 287 288 290 292 293 295 295 296 297 297 298 298 298 300 300 301 301 302 303
194 195 198 202 203 205 209 218 229 236 243 252 260 264 268 271 273 276 279 282 283 284 285 287 289 290 291 293 294 295 296 296 296 297 298 299 299 299 300 300 301 301 302 303
194 199 203 207 211 216 222 231 239 246 253 261 267 271 274 276 278 280 282 283 286 288 289 290 292 293 294 294 294 295 296 296 297 299 299 300 300 301 302 302 303 303 304 305
Height
5787 5790 5793 5796 5798 5800 5802 5804 5805 5808 5809 5811 5812 5813 5814 5815 5815 5815 5815 5815 5815 5815 5814 5814 5815 5815 5816 5815 5816 5816 5817 5817 5818 5818 5819 5819 5820 5821 5822 5823 5824 5825 5826 5828
5782 5785 5788 5791 5794 5796 5797 5799 5801 5803 5805 5806 5807 5808 5809 5810 5811 5811 5811 5811 5811 5811 5811 5811 5812 5812 5812 5812 5812 5813 5813 5814 5815 5815 5816 5816 5817 5817 5818 5819 5820 5821 5822 5824
5778 5781 5783 5786 5789 5791 5793 5795 5796 5798 5800 5801 5802 5803 5804 5805 5806 5807 5807 5807 5807 5807 5808 5808 5808 5808 5808 5808 5809 5809 5810 5811 5812 5812 5813 5813 5814 5814 5815 5816 5816 5817 5818 5819
5773 5776 5778 5783 5784 5786 5787 5789 5791 5792 5794 5796 5797 5798 5799 5800 5801 5801 5802 5802 5802 5803 5803 5803 5804 5804 5804 5804 5805 5806 5807 5808 5808 5809 5809 5809 5810 5811 5811 5812 5812 5813 5814 5815
5767 5769 5772 5776 5778 5780 5782 5784 5785 5787 5788 5790 5791 5792 5794 5794 5795 5796 5796 5797 5797 5797 5798 5798 5799 5800 5800 5801 5801 5802 5803 5804 5805 5805 5805 5806 5806 5807 5807 5807 5808 5808 5809 5810
5761 5763 5766 5771 5773 5774 5777 5778 5780 5781 5782 5783 5785 5786 5788 5788 5789 5790 5790 5791 5791 5792 5792 5793 5794 5795 5796 5797 5797 5798 5799 5800 5801 5801 5802 5802 5802 5803 5803 5804 5804 5804 5804 5804
5754 5757 5760 5764 5766 5769 5772 5774 5774 5775 5776 5777 5778 5780 5782 5782 5783 5783 5784 5785 5785 5786 5787 5788 5789 5790 5791 5792 5793 5794 5794 5795 5796 5797 5797 5798 5798 5799 5799 5799 5799 5799 5799 5799
5747 5751 5756 5757 5760 5763 5765 5766 5767 5768 5769 5771 5772 5773 5774 5776 5777 5777 5778 5779 5780 5781 5781 5783 5784 5785 5786 5787 5788 5789 5789 5790 5791 5792 5793 5793 5794 5794 5794 5794 5794 5794 5794 5793
5742 5746 5749 5751 5753 5755 5757 5759 5761 5762 5763 5765 5766 5767 5768 5769 5771 5771 5772 5773 5774 5775 5776 5777 5779 5780 5781 5782 5783 5784 5784 5785 5786 5787 5787 5788 5789 5789 5789 5789 5789 5788 5788 5788
5734 5738 5741 5744 5746 5748 5751 5752 5754 5756 5757 5758 5760 5761 5762 5764 5765 5765 5766 5767 5768 5769 5770 5772 5773 5775 5776 5777 5778 5779 5780 5780 5781 5781 5782 5783 5784 5784 5784 5784 5783 5783 5782 5781
5727 5731 5734 5737 5739 5742 5744 5746 5748 5750 5751 5753 5754 5755 5756 5757 5758 5759 5760 5761 5763 5764 5765 5767 5768 5769 5771 5772 5773 5774 5775 5775 5776 5776 5777 5777 5778 5778 5778 5778 5777 5777 5776 5775
5722 5725 5728 5731 5733 5735 5738 5740 5742 5744 5746 5747 5748 5750 5751 5752 5753 5754 5756 5757 5758 5760 5761 5762 5763 5765 5766 5767 5768 5769 5769 5770 5771 5771 5772 5772 5772 5772 5772 5772 5771 5770 5770 5769
5715 5719 5722 5724 5726 5729 5732 5734 5737 5739 5741 5742 5743 5745 5746 5747 5748 5750 5751 5752 5754 5755 5756 5758 5759 5760 5762 5763 5763 5764 5764 5765 5766 5766 5767 5767 5767 5766 5766 5765 5765 5764 5763 5762
5709 5713 5716 5719 5721 5724 5726 5729 5731 5733 5735 5737 5738 5740 5741 5742 5744 5745 5746 5747 5749 5750 5751 5753 5754 5756 5757 5758 5759 5759 5759 5760 5761 5761 5761 5761 5761 5760 5760 5759 5758 5757 5756 5754
5704 5708 5711 5713 5716 5719 5721 5724 5726 5728 5730 5732 5733 5735 5736 5738 5739 5740 5742 5743 5744 5746 5747 5748 5750 5751 5752 5753 5753 5754 5754 5755 5756 5756 5756 5756 5755 5754 5754 5753 5751 5750 5748 5747
5699 5703 5706 5709 5711 5714 5716 5719 5721 5723 5725 5727 5729 5730 5732 5733 5735 5736 5737 5739 5740 5741 5743 5744 5745 5746 5747 5748 5748 5749 5750 5750 5750 5751 5750 5750 5749 5748 5747 5745 5744 5742 5740 5738
5696 5699 5702 5705 5707 5710 5712 5715 5717 5719 5721 5723 5725 5726 5728 5729 5730 5732 5733 5735 5737 5738 5739 5740 5741 5742 5743 5743 5744 5744 5745 5745 5745 5745 5744 5743 5742 5741 5739 5738 5736 5734 5731 5729
5692 5695 5699 5701 5704 5706 5709 5711 5714 5716 5718 5720 5721 5723 5724 5726 5727 5728 5730 5732 5733 5734 5735 5736 5737 5738 5738 5739 5740 5740 5740 5740 5740 5739 5738 5737 5735 5734 5732 5730 5728 5725 5722 5720
5689 5692 5695 5698 5701 5704 5706 5709 5711 5713 5714 5716 5718 5720 5721 5723 5724 5725 5727 5728 5730 5731 5732 5732 5733 5734 5734 5735 5735 5735 5735 5734 5733 5732 5731 5730 5728 5726 5724 5722 5720 5717 5714 5711
5687 5690 5693 5696 5698 5701 5704 5706 5708 5710 5712 5713 5715 5717 5718 5720 5721 5723 5724 5726 5727 5727 5728 5729 5729 5730 5730 5730 5730 5729 5728 5728 5727 5725 5724 5723 5721 5719 5716 5714 5711 5708 5705 5702
5685 5689 5692 5694 5696 5699 5701 5703 5705 5707 5709 5711 5713 5714 5716 5718 5719 5720 5721 5723 5723 5724 5725 5725 5725 5725 5725 5724 5724 5723 5722 5721 5720 5718 5717 5715 5713 5711 5708 5705 5702 5699 5696 5693
5684 5687 5690 5693 5695 5697 5700 5702 5704 5705 5707 5709 5711 5713 5714 5715 5717 5717 5718 5719 5720 5720 5720 5720 5720 5720 5719 5719 5718 5717 5716 5714 5713 5711 5709 5707 5705 5702 5699 5696 5693 5690 5687 5684
5683 5686 5689 5691 5694 5696 5698 5700 5702 5704 5706 5707 5709 5710 5711 5713 5714 5714 5715 5715 5715 5715 5716 5715 5715 5714 5713 5713 5711 5710 5709 5707 5705 5703 5701 5699 5696 5693 5691 5688 5684 5681 5678 5674
5682 5684 5687 5690 5692 5695 5697 5699 5701 5702 5704 5705 5707 5708 5709 5710 5710 5711 5711 5711 5711 5711 5710 5710 5709 5708 5707 5706 5704 5703 5701 5699 5697 5695 5692 5690 5687 5684 5681 5678 5675 5672 5669 5665
5680 5683 5686 5688 5691 5693 5695 5697 5699 5700 5702 5703 5704 5705 5706 5706 5706 5707 5706 5706 5706 5705 5705 5704 5703 5702 5700 5699 5697 5695 5693 5691 5688 5686 5683 5680 5677 5675 5672 5669 5666 5663 5659 5656
5679 5682 5685 5687 5689 5691 5693 5695 5696 5698 5699 5700 5701 5702 5702 5702 5702 5702 5702 5701 5700 5699 5698 5697 5696 5694 5693 5691 5689 5687 5685 5682 5680 5677 5674 5671 5668 5665 5662 5659 5656 5653 5650 5647
5678 5681 5683 5685 5687 5689 5691 5693 5694 5695 5696 5697 5697 5697 5697 5697 5697 5697 5696 5695 5694 5693 5692 5690 5689 5687 5685 5683 5680 5678 5676 5673 5671 5668 5665 5662 5659 5656 5653 5650 5647 5644 5641 5639